Torna al catalogo

FORMOSAT 3A

AttivoMeteoLEO
NORAD 29047·PAYLOAD·🇹🇼 Taiwan

Lanciato Apr 15, 2006 da Vandenberg Space Force Base

Loading…

Prossimi Passaggi (prossime 24 ore)

TLE

AggiornatoSource: Space-Track

Epoca: Sep 14, 2026, 14:58 UTC

1 29047U 06011A   26257.62378891  .00000278  00000-0  11889-3 0  9993
2 29047  71.9763 127.9984 0046791  82.6544 277.9908 14.31453614 67202

Traccia FORMOSAT 3A in tempo reale con AllMySat

Download on the App Store